"Period start","avg(HW err(1)/warn(2) (#))","avg(Visibility (m))","avg(Weather code (#))","avg(Precip intensity (mm/h))","min(HW err(1)/warn(2) (#))","max(HW err(1)/warn(2) (#))","std(HW err(1)/warn(2) (#))","med(HW err(1)/warn(2) (#))","min(Visibility (m))","max(Visibility (m))","std(Visibility (m))","med(Visibility (m))","min(Weather code (#))","max(Weather code (#))","std(Weather code (#))","med(Weather code (#))","min(Precip intensity (mm/h))","max(Precip intensity (mm/h))","std(Precip intensity (mm/h))","med(Precip intensity (mm/h))"
2016-05-08 00:00:00,2,953,71,1.21,2,2,0,2,746,1383,187,889,71,71,0,71,0.15,2.55,0.69,1.00
2016-05-08 00:10:00,2,874,71,1.08,2,2,0,2,644,1162,160,873,71,71,0,71,0.40,2.20,0.55,0.92
2016-05-08 00:20:00,2,658,71,0.75,2,2,0,2,494,1124,175,605,71,71,0,71,0.05,1.55,0.52,0.60
2016-05-08 00:30:00,2,733,71,0.39,2,2,0,2,542,1083,139,700,71,71,0,71,0.00,1.00,0.27,0.30
2016-05-08 00:40:00,2,928,71,0.77,2,2,0,2,723,1233,183,881,71,71,0,71,0.20,1.60,0.41,0.73
2016-05-08 00:50:00,2,965,71,1.00,2,2,0,2,645,1302,239,1016,71,71,0,71,0.05,2.35,0.73,0.73
2016-05-08 01:00:00,2,940,71,1.34,2,2,0,2,592,1433,291,852,71,71,0,71,0.10,4.05,1.07,1.18
2016-05-08 01:10:00,2,709,71,0.24,2,2,0,2,487,996,187,645,71,71,0,71,0.00,0.95,0.28,0.17
2016-05-08 01:20:00,2,968,71,1.05,2,2,0,2,665,1377,257,882,71,71,0,71,0.15,1.55,0.47,1.23
2016-05-08 01:30:00,2,937,63,0.20,2,2,0,2,668,1195,163,920,33,71,15,71,0.00,0.80,0.28,0.05
2016-05-08 01:40:00,2,1333,71,0.28,2,2,0,2,901,2511,461,1142,71,71,0,71,0.00,1.00,0.32,0.12
2016-05-08 01:50:00,2,1420,71,0.65,2,2,0,2,1050,2147,368,1293,71,71,0,71,0.05,1.50,0.58,0.40
2016-05-08 02:00:00,2,1624,71,0.35,2,2,0,2,839,2663,496,1568,71,71,0,71,0.05,1.10,0.37,0.17
2016-05-08 02:10:00,2,1757,71,0.58,2,2,0,2,1060,2454,463,1807,71,71,0,71,0.05,2.05,0.59,0.30
2016-05-08 02:20:00,2,1661,71,1.01,2,2,0,2,994,2648,537,1434,71,71,0,71,0.10,2.30,0.67,1.15
2016-05-08 02:30:00,2,1799,71,1.14,2,2,0,2,1380,2271,248,1849,71,71,0,71,0.35,2.80,0.72,0.93
2016-05-08 02:40:00,2,3110,71,1.05,2,2,0,2,1853,4691,734,2926,71,71,0,71,0.30,1.75,0.50,0.93
2016-05-08 02:50:00,2,4952,71,0.65,2,2,0,2,2528,8105,1653,4828,71,71,0,71,0.05,1.20,0.39,0.75
2016-05-08 03:00:00,2,4344,71,1.06,2,2,0,2,2671,6300,1192,4624,71,71,0,71,0.25,1.90,0.56,1.07
2016-05-08 03:10:00,2,2759,71,2.45,2,2,0,2,1041,6531,1635,2143,71,71,0,71,0.50,5.45,1.51,2.20
2016-05-08 03:20:00,2,3407,71,1.82,2,2,0,2,926,11052,3298,1886,71,71,0,71,0.20,3.20,0.96,1.77
2016-05-08 03:30:00,2,1292,71,3.42,2,2,0,2,516,2897,626,1123,71,71,0,71,1.10,4.65,0.99,3.45
2016-05-08 03:40:00,2,2757,71,2.76,2,2,0,2,917,5640,1677,1921,71,71,0,71,0.40,5.75,1.51,3.00
2016-05-08 03:50:00,2,5788,71,1.20,2,2,0,2,2170,12269,3069,4981,71,71,0,71,0.15,2.35,0.79,1.23
2016-05-08 04:00:00,2,1982,71,3.17,2,2,0,2,1304,2982,466,1958,71,71,0,71,1.45,4.55,1.11,3.62
2016-05-08 04:10:00,2,7036,71,1.71,2,2,0,2,1239,20659,5693,5626,71,71,0,71,0.00,5.10,1.51,1.43
2016-05-08 04:20:00,2,6016,71,1.22,2,2,0,2,2757,19362,4642,4126,71,71,0,71,0.00,2.00,0.62,1.55
2016-05-08 04:30:00,2,6999,71,2.05,2,2,0,2,1649,32098,8662,4692,71,71,0,71,0.00,5.20,1.63,1.60
2016-05-08 04:40:00,2,5285,71,1.76,2,2,0,2,1581,16824,4336,4102,71,71,0,71,0.10,4.35,1.49,1.10
2016-05-08 04:50:00,2,11373,71,0.88,2,2,0,2,3136,39032,10838,5814,71,71,0,71,0.00,2.25,0.77,1.00
2016-05-08 05:00:00,2,5613,71,1.82,2,2,0,2,1585,17239,4456,4494,71,71,0,71,0.05,4.25,1.32,1.80
2016-05-08 05:10:00,2,5658,71,1.90,2,2,0,2,1592,15592,4430,4126,71,71,0,71,0.15,5.35,1.66,1.23
2016-05-08 05:20:00,2,7507,71,1.14,2,2,0,2,2716,15731,3905,6180,71,71,0,71,0.20,2.60,0.70,0.97
2016-05-08 05:30:00,2,12380,71,0.53,2,2,0,2,4475,27980,7413,8990,71,71,0,71,0.05,1.60,0.51,0.30
2016-05-08 05:40:00,2,6896,71,1.03,2,2,0,2,2165,12564,3473,6050,71,71,0,71,0.15,2.10,0.85,0.88
2016-05-08 05:50:00,2,2194,71,3.13,2,2,0,2,976,5296,1189,1967,71,71,0,71,1.65,5.60,1.26,2.83
2016-05-08 06:00:00,2,16150,71,0.55,2,2,0,2,3055,35775,9556,16384,71,71,0,71,0.00,2.50,0.77,0.20
2016-05-08 06:10:00,2,4818,71,2.09,2,2,0,2,1268,10916,3623,3130,71,71,0,71,0.40,6.10,1.80,1.62
2016-05-08 06:20:00,2,3118,71,2.91,2,2,0,2,1637,7797,1705,2614,71,71,0,71,0.80,5.45,1.42,3.17
2016-05-08 06:30:00,2,9345,71,1.28,2,2,0,2,2438,35192,10019,4538,71,71,0,71,0.00,2.40,0.81,1.25
2016-05-08 06:40:00,2,8559,71,1.19,2,2,0,2,2467,40684,10821,5285,71,71,0,71,0.05,2.35,0.63,1.25
2016-05-08 06:50:00,2,13597,71,0.51,2,2,0,2,4893,43465,12680,8594,71,71,0,71,0.00,1.45,0.45,0.38
2016-05-08 07:00:00,2,7666,71,0.92,2,2,0,2,3476,15030,3967,6502,71,71,0,71,0.05,1.65,0.50,1.05
2016-05-08 07:10:00,2,6352,71,1.14,2,2,0,2,3075,10661,2610,5482,71,71,0,71,0.30,2.20,0.60,1.15
2016-05-08 07:20:00,2,22215,71,0.15,2,2,0,2,6185,37649,10378,23298,71,71,0,71,0.00,0.90,0.26,0.05
2016-05-08 07:30:00,2,27515,71,0.12,2,2,0,2,14210,50000,11193,24528,71,71,0,71,0.00,0.40,0.13,0.08
2016-05-08 07:40:00,2,25104,71,0.09,2,2,0,2,9845,50000,10626,23063,71,71,0,71,0.00,0.25,0.08,0.08
2016-05-08 07:50:00,2,26036,71,0.10,2,2,0,2,7126,43893,12155,28338,71,71,0,71,0.00,0.30,0.09,0.10
2016-05-08 08:00:00,2,11149,71,0.45,2,2,0,2,4938,34735,8666,7082,71,71,0,71,0.00,0.95,0.27,0.35
2016-05-08 08:10:00,2,23139,71,0.28,2,2,0,2,7892,48679,14253,16024,71,71,0,71,0.00,1.10,0.32,0.23
2016-05-08 08:20:00,2,15627,71,0.46,2,2,0,2,6378,41308,9087,13799,71,71,0,71,0.05,0.90,0.29,0.53
2016-05-08 08:30:00,2,9094,71,0.81,2,2,0,2,3792,16109,3052,8936,71,71,0,71,0.15,1.80,0.47,0.75
2016-05-08 08:40:00,2,12223,71,0.49,2,2,0,2,6705,17545,3944,12610,71,71,0,71,0.05,1.20,0.40,0.35
2016-05-08 08:50:00,2,8124,71,1.29,2,2,0,2,2291,21348,5867,5114,71,71,0,71,0.10,3.15,1.03,1.40
2016-05-08 09:00:00,2,10611,71,0.84,2,2,0,2,1904,17804,4570,9774,71,71,0,71,0.10,4.05,1.13,0.42
2016-05-08 09:10:00,2,13031,71,0.48,2,2,0,2,4659,30743,7750,12426,71,71,0,71,0.05,1.30,0.38,0.47
2016-05-08 09:20:00,2,5255,71,1.46,2,2,0,2,2133,11362,2975,4075,71,71,0,71,0.35,2.80,0.72,1.55
2016-05-08 09:30:00,2,16896,71,0.23,2,2,0,2,9014,31488,7062,14642,71,71,0,71,0.00,0.50,0.15,0.20
2016-05-08 09:40:00,2,11187,71,0.59,2,2,0,2,3333,19550,6156,9683,71,71,0,71,0.05,1.15,0.40,0.68
2016-05-08 09:50:00,2,9710,71,1.22,2,2,0,2,2812,22592,7621,5221,71,71,0,71,0.00,2.95,1.04,1.07
2016-05-08 10:00:00,2,14179,71,0.42,2,2,0,2,4822,22246,5690,15485,71,71,0,71,0.05,0.95,0.29,0.30
2016-05-08 10:10:00,2,8730,71,0.68,2,2,0,2,3909,18314,4150,7474,71,71,0,71,0.20,1.30,0.32,0.68
2016-05-08 10:20:00,2,5532,71,1.12,2,2,0,2,3602,7269,1153,5632,71,71,0,71,0.60,1.55,0.28,1.10
2016-05-08 10:30:00,2,6499,71,1.23,2,2,0,2,2598,19715,4781,4476,71,71,0,71,0.20,2.35,0.71,0.95
2016-05-08 10:40:00,2,11390,71,0.79,2,2,0,2,3654,28362,6771,10279,71,71,0,71,0.05,2.00,0.66,0.53
2016-05-08 10:50:00,2,9143,71,1.01,2,2,0,2,3345,20730,5086,8098,71,71,0,71,0.00,2.60,0.86,0.70
2016-05-08 11:00:00,2,19390,71,0.38,2,2,0,2,6736,37677,7996,17526,71,71,0,71,0.00,1.30,0.48,0.15
2016-05-08 11:10:00,2,29286,71,0.11,2,2,0,2,19541,37650,5977,28636,71,71,0,71,0.00,0.55,0.17,0.03
2016-05-08 11:20:00,2,41196,71,0.03,2,2,0,2,16132,50000,10021,42789,71,71,0,71,0.00,0.15,0.05,0.00
2016-05-08 11:30:00,2,46234,31,0.01,2,2,0,2,39044,50000,3844,47745,0,77,38,0,0.00,0.05,0.02,0.00
2016-05-08 11:40:00,2,48567,61,0.01,2,2,0,2,43171,50000,2333,50000,0,77,24,74,0.00,0.05,0.02,0.00
2016-05-08 11:50:00,2,45216,30,0.01,2,2,0,2,29945,50000,6372,48168,0,77,36,0,0.00,0.05,0.02,0.00
2016-05-08 12:00:00,2,48558,43,0.01,2,2,0,2,40084,50000,3127,50000,0,71,35,71,0.00,0.15,0.05,0.00
2016-05-08 12:10:00,2,47348,75,0.02,2,2,0,2,39262,50000,3700,49608,71,77,3,77,0.00,0.10,0.03,0.00
2016-05-08 12:20:00,2,39321,72,0.07,2,2,0,2,21724,50000,10434,43927,71,77,2,71,0.00,0.40,0.11,0.05
2016-05-08 12:30:00,2,49679,43,0.00,2,2,0,2,46883,50000,932,50000,0,77,35,71,0.00,0.00,0.00,0.00
2016-05-08 12:40:00,2,50000,0,0.00,2,2,0,2,50000,50000,0,50000,0,0,0,0,0.00,0.00,0.00,0.00
2016-05-08 12:50:00,2,45056,36,0.00,2,2,0,2,34760,50000,4378,45228,0,71,36,36,0.00,0.00,0.00,0.00
2016-05-08 13:00:00,2,49760,21,0.00,2,2,0,2,47596,50000,721,50000,0,71,33,0,0.00,0.00,0.00,0.00
2016-05-08 13:10:00,2,47092,38,0.01,2,2,0,2,32878,50000,5439,50000,0,78,38,36,0.00,0.10,0.03,0.00
2016-05-08 13:20:00,2,47494,51,0.00,2,2,0,2,35213,50000,4539,50000,0,71,28,71,0.00,0.00,0.00,0.00
2016-05-08 13:30:00,2,49230,78,0.00,2,2,0,2,46394,50000,1369,50000,77,78,0,78,0.00,0.00,0.00,0.00
2016-05-08 13:40:00,2,45407,30,0.01,2,2,0,2,35154,50000,5777,50000,0,78,37,0,0.00,0.05,0.02,0.00
2016-05-08 13:50:00,2,25028,71,0.35,2,2,0,2,3714,50000,17410,23368,71,71,0,71,0.00,2.05,0.59,0.12
2016-05-08 14:00:00,2,11995,71,0.52,2,2,0,2,2044,27360,7439,10499,71,71,0,71,0.00,2.05,0.61,0.33
2016-05-08 14:10:00,2,19391,71,0.32,2,2,0,2,4751,42035,11948,18758,71,71,0,71,0.00,0.90,0.29,0.15
2016-05-08 14:20:00,2,5444,71,1.15,2,2,0,2,2821,10662,2266,4700,71,71,0,71,0.20,2.15,0.68,1.15
2016-05-08 14:30:00,2,17842,71,0.49,2,2,0,2,3883,29768,8508,19626,71,71,0,71,0.00,2.70,0.80,0.15
2016-05-08 14:40:00,2,8977,71,0.63,2,2,0,2,2365,18580,5319,8330,71,71,0,71,0.00,1.65,0.52,0.57
2016-05-08 14:50:00,2,20275,71,0.10,2,2,0,2,10078,40320,9767,18080,71,71,0,71,0.00,0.30,0.11,0.05
2016-05-08 15:00:00,2,16481,71,0.15,2,2,0,2,3968,24658,6353,17954,71,71,0,71,0.00,0.40,0.16,0.08
2016-05-08 15:10:00,2,5673,71,0.57,2,2,0,2,3286,12098,2447,4990,71,71,0,71,0.30,0.85,0.21,0.57
2016-05-08 15:20:00,2,4841,71,0.72,2,2,0,2,2600,12385,2782,4023,71,71,0,71,0.25,1.30,0.33,0.68
2016-05-08 15:30:00,2,5272,71,1.27,2,2,0,2,1076,13849,4250,2937,71,71,0,71,0.15,2.80,0.88,1.15
2016-05-08 15:40:00,2,6797,71,0.92,2,2,0,2,2069,17192,4092,5571,71,71,0,71,0.10,1.75,0.49,1.02
2016-05-08 15:50:00,2,13173,71,0.51,2,2,0,2,3992,25933,7890,11014,71,71,0,71,0.00,1.30,0.43,0.52
2016-05-08 16:00:00,2,17064,71,0.36,2,2,0,2,5703,32878,8078,13864,71,71,0,71,0.00,1.30,0.37,0.23
2016-05-08 16:10:00,2,8825,71,0.61,2,2,0,2,3680,13636,3256,8289,71,71,0,71,0.15,1.35,0.35,0.62
2016-05-08 16:20:00,2,6254,71,1.38,2,2,0,2,2926,19027,4488,4824,71,71,0,71,0.15,3.30,0.85,1.15
2016-05-08 16:30:00,2,7244,71,1.18,2,2,0,2,2579,11674,2984,7590,71,71,0,71,0.10,4.00,1.11,0.77
2016-05-08 16:40:00,2,14413,71,0.40,2,2,0,2,7148,26052,6399,11709,71,71,0,71,0.00,0.95,0.31,0.28
2016-05-08 16:50:00,2,15405,71,0.55,2,2,0,2,2923,31424,8843,11256,71,71,0,71,0.05,1.40,0.49,0.42
2016-05-08 17:00:00,2,7286,71,0.99,2,2,0,2,2695,14735,3366,6690,71,71,0,71,0.20,2.25,0.66,0.85
2016-05-08 17:10:00,2,7485,71,1.03,2,2,0,2,2854,18200,4772,5207,71,71,0,71,0.05,2.45,0.79,0.93
2016-05-08 17:20:00,2,28751,71,0.06,2,2,0,2,14962,50000,11309,25350,71,71,0,71,0.00,0.15,0.05,0.05
2016-05-08 17:30:00,2,21264,71,0.55,2,2,0,2,3108,47603,14695,18042,71,71,0,71,0.00,1.85,0.65,0.15
2016-05-08 17:40:00,2,5676,71,0.97,2,2,0,2,3923,8644,1373,5399,71,71,0,71,0.25,2.15,0.49,0.95
2016-05-08 17:50:00,2,7118,71,0.54,2,2,0,2,4345,12740,2669,6428,71,71,0,71,0.05,0.90,0.30,0.65
2016-05-08 18:00:00,2,7780,71,0.80,2,2,0,2,2616,15223,3996,6413,71,71,0,71,0.10,1.50,0.46,0.82
2016-05-08 18:10:00,2,20649,71,0.27,2,2,0,2,7106,41540,10974,20994,71,71,0,71,0.00,0.90,0.28,0.15
2016-05-08 18:20:00,2,5268,71,1.02,2,2,0,2,2337,8792,1953,5457,71,71,0,71,0.25,3.10,0.79,0.78
2016-05-08 18:30:00,2,5965,71,1.09,2,2,0,2,2875,14390,3121,4780,71,71,0,71,0.15,1.85,0.54,1.18
2016-05-08 18:40:00,2,9211,71,0.66,2,2,0,2,5292,18873,3617,8320,71,71,0,71,0.25,1.50,0.32,0.60
2016-05-08 18:50:00,2,12724,71,0.58,2,2,0,2,3451,31271,9690,7716,71,71,0,71,0.00,1.45,0.49,0.47
2016-05-08 19:00:00,2,8304,71,0.64,2,2,0,2,4283,15608,3289,8189,71,71,0,71,0.10,1.70,0.45,0.42
2016-05-08 19:10:00,2,3472,71,1.89,2,2,0,2,1521,7262,1483,3437,71,71,0,71,0.30,4.10,1.15,1.65
2016-05-08 19:20:00,2,9600,71,1.09,2,2,0,2,4467,21219,5448,8108,71,71,0,71,0.15,2.35,0.65,1.05
2016-05-08 19:30:00,2,21274,71,0.20,2,2,0,2,7680,49402,13127,16454,71,71,0,71,0.00,0.85,0.24,0.17
2016-05-08 19:40:00,2,11821,71,1.06,2,2,0,2,3206,26876,8313,7800,71,71,0,71,0.00,2.65,0.80,0.95
2016-05-08 19:50:00,2,34535,71,0.19,2,2,0,2,8758,50000,14392,38412,71,71,0,71,0.00,0.90,0.32,0.00
2016-05-08 20:00:00,2,8045,71,1.37,2,2,0,2,2320,18501,5152,5928,71,71,0,71,0.15,2.80,0.79,1.38
2016-05-08 20:10:00,2,18089,71,0.30,2,2,0,2,6376,33856,8055,16162,71,71,0,71,0.00,0.90,0.28,0.25
2016-05-08 20:20:00,2,18255,71,0.27,2,2,0,2,10120,29890,6165,17516,71,71,0,71,0.05,0.60,0.21,0.25
2016-05-08 20:30:00,2,36264,71,0.10,2,2,0,2,10353,50000,12928,40524,71,71,0,71,0.00,0.50,0.15,0.05
2016-05-08 20:40:00,2,14062,71,0.64,2,2,0,2,5153,28418,7812,13037,71,71,0,71,0.05,1.40,0.51,0.47
2016-05-08 20:50:00,2,23739,71,0.17,2,2,0,2,12953,39208,7784,23714,71,71,0,71,0.00,0.40,0.15,0.10
2016-05-08 21:00:00,2,14592,71,0.54,2,2,0,2,4335,31435,7606,13744,71,71,0,71,0.00,1.40,0.41,0.55
2016-05-08 21:10:00,2,8960,71,1.13,2,2,0,2,2741,26569,6762,6270,71,71,0,71,0.05,3.75,0.97,1.12
2016-05-08 21:20:00,2,14598,71,0.47,2,2,0,2,6893,27373,5930,12539,71,71,0,71,0.05,0.95,0.32,0.38
2016-05-08 21:30:00,2,22294,71,0.27,2,2,0,2,3615,34334,8878,23418,71,71,0,71,0.00,1.40,0.42,0.10
2016-05-08 21:40:00,2,23631,71,0.31,2,2,0,2,5317,37941,9114,24642,71,71,0,71,0.00,1.80,0.51,0.17
2016-05-08 21:50:00,2,15106,71,0.61,2,2,0,2,4625,39530,11422,10476,71,71,0,71,0.00,1.35,0.46,0.62
2016-05-08 22:00:00,2,20039,71,0.12,2,2,0,2,11611,34030,5817,19516,71,71,0,71,0.00,0.30,0.08,0.12
2016-05-08 22:10:00,2,14618,71,0.51,2,2,0,2,4940,32255,8506,14830,71,71,0,71,0.00,1.45,0.52,0.30
2016-05-08 22:20:00,2,32010,71,0.04,2,2,0,2,19517,42657,6889,32624,71,71,0,71,0.00,0.25,0.07,0.00
2016-05-08 22:30:00,2,27633,72,0.04,2,2,0,2,13056,39154,7157,29530,71,77,2,71,0.00,0.25,0.08,0.00
2016-05-08 22:40:00,2,18614,71,0.23,2,2,0,2,8599,34171,7191,16352,71,71,0,71,0.05,0.80,0.22,0.17
2016-05-08 22:50:00,2,14641,71,0.35,2,2,0,2,7397,22922,4878,14319,71,71,0,71,0.05,1.00,0.29,0.23
2016-05-08 23:00:00,2,8351,71,1.77,2,2,0,2,1465,21238,7224,5588,71,71,0,71,0.10,4.85,1.70,0.95
2016-05-08 23:10:00,2,3886,71,2.42,2,2,0,2,1938,6294,1368,3454,71,71,0,71,1.20,4.35,0.98,2.25
2016-05-08 23:20:00,2,14716,71,0.61,2,2,0,2,6329,29395,7414,12444,71,71,0,71,0.05,1.45,0.53,0.48
2016-05-08 23:30:00,2,26730,50,0.17,2,2,0,2,10326,47883,13908,21461,0,71,33,71,0.00,0.80,0.28,0.03
2016-05-08 23:40:00,2,12993,71,0.96,2,2,0,2,2529,27611,7655,14385,71,71,0,71,0.05,3.80,1.31,0.23
2016-05-08 23:50:00,2,31009,71,0.17,2,2,0,2,7657,49704,13824,31904,71,71,0,71,0.00,0.80,0.28,0.03
